Tracking 23726 objects as of 24-Sep-2021
HD Live streaming from Space Station
objects crossing your sky now

STARLINK-2279

Track STARLINK-2279 now!
10-day predictions
STARLINK-2279 is classified as:


NORAD ID: 47991
Int'l Code: 2021-024Q
Perigee: 412.0 km
Apogee: 415.3 km
Inclination: 53.0 °
Period: 92.7 minutes
Semi major axis: 6784 km
RCS: Unknown
Launch date: March 24, 2021
Source: United States (US)
Launch site: AIR FORCE EASTERN TEST RANGE (AFETR)
aabbcc
Your satellite tracking list
Your tracking list is empty




NASA's NSSDC Master Catalog

Two Line Element Set (TLE):
1 47991U 21024Q   21267.25001157 -.00002230  00000-0 -27181-4 0  9990
2 47991  53.0441  11.3467 0002474  20.2033 156.4103 15.53500440 29736
Source of the keplerian elements: AFSPC